[[{"header":{"parameterUnit":"m.s-1","parameterCategory":1,"la1":30.2991,"la2":30.254,"lo1":-89.0895,"lo2":-89.0444,"dx":0.0017,"dy":0.0017,"nx":28,"ny":28,"refTime":"2022-11-07T09:00:00:Z","depth":0,"parameterNumber":2,"parameterNumberName":"U-component_of_WINDS"},"data":[0,0,0,0,0,0,0,0,0,0,0,0,0,0,0,0,0,0,0,0,0,0,0,0,0,0,0,0,0,0,0,0,0,0,0,0,0,0,0,0,0,0,0,0,0,0,0,0,0,0,0,0,0,0,0,0,0,0,-1.0704,-1.0703,0,-1.0662,-1.0662,-1.0662,-1.0589,-1.0587,-1.0586,-1.0585,-1.0544,-1.0544,-1.0544,0,0,0,0,0,0,0,0,0,0,0,0,0,-1.0722,-1.0722,-1.0704,-1.0703,-1.0703,-1.0663,-1.0662,-1.0661,-1.0589,-1.0587,-1.0586,-1.0584,-1.0544,-1.0544,-1.0544,0,0,0,0,0,0,0,0,0,0,0,0,0,-1.0701,-1.0722,-1.0704,-1.0662,-1.0658,-1.0663,-1.0662,-1.0661,-1.0589,-1.0587,-1.0585,-1.0583,-1.0544,-1.0544,-1.0544,-1.0588,0,0,-1.0545,-1.0545,0,0,0,0,0,0,0,0,-1.0702,-1.07,-1.0669,-1.0665,-1.066,-1.0629,-1.0653,-1.0637,-1.059,-1.0615,-1.0585,-1.0582,-1.0574,-1.0572,-1.0568,-1.0586,-1.0584,-1.0545,-1.0546,-1.0546,-1.0546,0,0,0,0,0,0,0,-1.0703,-1.0701,-1.0688,-1.0668,-1.0663,-1.0645,-1.064,-1.065,-1.0607,-1.0613,-1.0608,-1.0604,-1.0571,-1.0568,-1.0567,-1.0583,-1.0545,-1.0546,-1.0546,-1.0546,-1.0634,-1.0636,0,0,0,0,0,0,-1.0711,-1.0703,-1.0689,-1.0686,-1.0676,-1.0647,-1.0641,-1.0641,-1.0606,-1.0599,-1.0605,-1.06,-1.0569,-1.0567,-1.0565,-1.0614,-1.0546,-1.0546,-1.0546,-1.0632,-1.0635,-1.0637,0,0,0,0,0,0,-1.0712,-1.071,-1.0691,-1.0693,-1.0689,-1.0649,-1.0649,-1.0641,-1.0638,-1.0601,-1.0593,-1.061,-1.0567,-1.0565,-1.0583,-1.0612,-1.0546,-1.0546,-1.0629,-1.0633,-1.0636,-1.0712,0,0,0,0,0,0,-1.0712,-1.0711,-1.0727,-1.0694,-1.0689,-1.0709,-1.0651,-1.0642,-1.0639,-1.0632,-1.0603,-1.0597,-1.0565,-1.0582,-1.0583,-1.0611,-1.0547,-1.0627,-1.0631,-1.0635,-1.0707,-1.0717,-1.0727,0,0,0,0,0,-1.0713,-1.075,-1.0728,-1.0727,-1.0708,-1.071,-1.0708,-1.0671,-1.0641,-1.0657,-1.0633,-1.0597,-1.0608,-1.0585,-1.0585,-1.0613,-1.0625,-1.063,-1.0634,-1.0702,-1.0715,-1.0726,0,0,0,0,0,0,-1.0788,-1.0745,-1.072,-1.0747,-1.0733,-1.0698,-1.0717,-1.0686,-1.068,-1.0673,-1.0628,-1.0622,-1.0646,-1.0631,-1.0606,-1.0653,-1.0611,-1.0616,-1.0662,-1.0674,-1.0684,-1.0688,-1.0547,0,0,0,0,0,-1.0808,-1.0812,-1.0775,-1.0802,-1.0796,-1.0758,-1.0758,-1.073,-1.0714,-1.0707,-1.0684,-1.067,-1.067,-1.0671,-1.0669,-1.0704,-1.0697,-1.0723,-1.0733,-1.0741,-1.0747,-1.0764,-1.0776,-1.0653,-1.0653,-1.0653,0,0,-1.0848,-1.0825,-1.0831,-1.0817,-1.0802,-1.0809,-1.0754,-1.0763,-1.0767,-1.0709,-1.0724,-1.0707,-1.0688,-1.0714,-1.0725,-1.0703,-1.0779,-1.0748,-1.0755,-1.0755,-1.0771,-1.0782,-1.0793,-1.0656,-1.0656,-1.0655,0,0,-1.0926,-1.0909,-1.093,-1.0917,-1.0895,-1.087,-1.0875,-1.0844,-1.0831,-1.0845,-1.0802,-1.0806,-1.0807,-1.0796,-1.079,-1.0863,-1.083,-1.0863,-1.0916,-1.0933,-1.0943,-1.0951,-1.0978,-1.0988,-1.0868,-1.0868,-1.0869,0,-1.098,-1.0987,-1.0946,-1.0957,-1.0953,-1.0899,-1.0921,-1.091,-1.0889,-1.0888,-1.0863,-1.0863,-1.0846,-1.0869,-1.0887,-1.0884,-1.0889,-1.0867,-1.0945,-1.0953,-1.096,-1.0985,-1.0995,-1.0873,-1.0872,-1.0872,-1.0871,0,-1.1055,-1.1061,-1.108,-1.1061,-1.1059,-1.1076,-1.1037,-1.1039,-1.1012,-1.0989,-1.1004,-1.0982,-1.0975,-1.0978,-1.0951,-1.0998,-1.0985,-1.0953,-1.091,-1.0977,-1.1,-1.1009,-1.0879,-1.0877,-1.0876,-1.0875,0,0,-1.118,-1.1137,-1.1145,-1.1136,-1.1108,-1.1112,-1.1126,-1.1118,-1.1122,-1.1109,-1.1121,-1.1122,-1.1093,-1.1086,-1.1058,-1.1073,-1.1133,-1.1039,-1.1038,-1.1059,-1.1183,-1.1208,-1.122,-1.1111,-1.1112,-1.1114,-1.1185,0,-1.1252,-1.1274,-1.1237,-1.1268,-1.1273,-1.1222,-1.1235,-1.1219,-1.1198,-1.12,-1.1176,-1.1178,-1.1138,-1.1134,-1.1147,-1.1123,-1.1158,-1.1117,-1.1122,-1.1123,-1.113,-1.1232,-1.1258,-1.1327,-1.1194,-1.1195,-1.1196,0,-1.134,-1.1332,-1.1363,-1.1333,-1.1334,-1.1346,-1.1336,-1.1338,-1.132,-1.1303,-1.1296,-1.1262,-1.1274,-1.1231,-1.1248,-1.1222,-1.1221,-1.1209,-1.1211,-1.1211,-1.1165,-1.1236,-1.1348,-1.1359,-1.121,-1.1209,-1.1208,0,-1.143,-1.1426,-1.1444,-1.1438,-1.1403,-1.1413,-1.1399,-1.1378,-1.1376,-1.1367,-1.1366,-1.1359,-1.1355,-1.1351,-1.1316,-1.1288,-1.1337,-1.1291,-1.1325,-1.1326,-1.1338,-1.1338,-1.1454,-1.1336,-1.1336,-1.1336,-1.1336,0,-1.1515,-1.1537,-1.1484,-1.1495,-1.1518,-1.1475,-1.1498,-1.1479,-1.1461,-1.1469,-1.1424,-1.1432,-1.1384,-1.1387,-1.136,-1.1379,-1.1377,-1.1365,-1.1357,-1.1369,-1.1371,-1.1369,-1.1364,-1.1339,-1.1338,-1.1338,-1.1337,0,-1.1619,-1.1584,-1.1601,-1.1567,-1.1559,-1.1577,-1.1548,-1.1558,-1.1533,-1.1543,-1.1542,-1.1504,-1.1505,-1.1469,-1.1463,-1.1445,-1.1476,-1.1459,-1.1482,-1.1478,-1.1513,-1.1511,-1.1632,-1.1646,-1.1519,-1.1521,-1.1522,0,-1.1677,-1.1692,-1.166,-1.1661,-1.1649,-1.1652,-1.165,-1.1607,-1.1607,-1.1587,-1.1599,-1.1596,-1.1591,-1.1595,-1.1567,-1.1562,-1.1546,-1.1589,-1.1545,-1.1557,-1.1548,-1.1548,-1.155,-1.1599,-1.16,-1.1602,-1.1603,0,-1.1784,-1.1765,-1.1763,-1.1755,-1.1753,-1.1745,-1.1733,-1.1737,-1.1691,-1.1693,-1.1693,-1.1689,-1.1683,-1.1681,-1.1671,-1.1656,-1.1623,-1.1616,-1.1624,-1.1637,-1.165,-1.1645,-1.1509,-1.1614,-1.1613,-1.1612,-1.1612,-1.1611,-1.1867,-1.1878,-1.1857,-1.1856,-1.1843,-1.1833,-1.1841,-1.1817,-1.1816,-1.1807,-1.1782,-1.1787,-1.1768,-1.175,-1.174,-1.1743,-1.1722,-1.1732,-1.1735,-1.1739,-1.1746,-1.1649,-1.1741,-1.174,-1.174,-1.174,-1.1739,0,-1.1972,-1.1955,-1.1955,-1.194,-1.194,-1.1907,-1.1892,-1.1894,-1.1899,-1.1884,-1.188,-1.1881,-1.1878,-1.185,-1.1844,-1.1852,-1.1837,-1.1853,-1.1852,-1.185,-1.1765,-1.1759,-1.1865,-1.1865,-1.1865,-1.1865,-1.1865,-1.1865,-1.2026,-1.2044,-1.2023,-1.2034,-1.2018,-1.2022,-1.2017,-1.2008,-1.1995,-1.1998,-1.1996,-1.1977,-1.1956,-1.1949,-1.1946,-1.1937,-1.1938,-1.1959,-1.1946,-1.1868,-1.1856,-1.1844,-1.1839,-1.1959,-1.196,-1.203,-1.2031,-1.2031]},{"header":{"parameterUnit":"m.s-1","parameterCategory":1,"la1":30.2991,"la2":30.254,"lo1":-89.0895,"lo2":-89.0444,"dx":0.0017,"dy":0.0017,"nx":28,"ny":28,"refTime":"2022-11-07T09:00:00:Z","depth":0,"parameterNumber":3,"parameterNumberName":"V-component_of_WINDS"},"data":[0,0,0,0,0,0,0,0,0,0,0,0,0,0,0,0,0,0,0,0,0,0,0,0,0,0,0,0,0,0,0,0,0,0,0,0,0,0,0,0,0,0,0,0,0,0,0,0,0,0,0,0,0,0,0,0,0,0,-0.6676,-0.6677,0,-0.6805,-0.6806,-0.6808,-0.6867,-0.6867,-0.6867,-0.6866,-0.7001,-0.7004,-0.7008,0,0,0,0,0,0,0,0,0,0,0,0,0,-0.6482,-0.6485,-0.6676,-0.6678,-0.6679,-0.6805,-0.6807,-0.6808,-0.6867,-0.6867,-0.6867,-0.6866,-0.7,-0.7004,-0.7008,0,0,0,0,0,0,0,0,0,0,0,0,0,-0.6584,-0.6486,-0.6676,-0.6723,-0.6729,-0.6804,-0.6807,-0.6809,-0.6867,-0.6867,-0.6867,-0.6866,-0.6998,-0.7004,-0.7009,-0.7047,0,0,-0.7026,-0.7028,0,0,0,0,0,0,0,0,-0.6578,-0.6591,-0.6715,-0.672,-0.6727,-0.682,-0.6788,-0.6889,-0.6867,-0.6815,-0.6866,-0.6866,-0.6941,-0.6951,-0.6976,-0.7054,-0.7059,-0.7026,-0.703,-0.7032,-0.7034,0,0,0,0,0,0,0,-0.6571,-0.6586,-0.6727,-0.6717,-0.6724,-0.6739,-0.6753,-0.6807,-0.6877,-0.6819,-0.6824,-0.6838,-0.6944,-0.697,-0.6979,-0.7061,-0.7026,-0.7031,-0.7035,-0.7037,-0.7177,-0.7177,0,0,0,0,0,0,-0.6556,-0.658,-0.6723,-0.6731,-0.665,-0.6743,-0.6759,-0.679,-0.6877,-0.689,-0.6838,-0.684,-0.6961,-0.6973,-0.6984,-0.7035,-0.7032,-0.7037,-0.7041,-0.7176,-0.7177,-0.7177,0,0,0,0,0,0,-0.6552,-0.6568,-0.6718,-0.6657,-0.6677,-0.6746,-0.6781,-0.6793,-0.6819,-0.6891,-0.6904,-0.6852,-0.6961,-0.6977,-0.7031,-0.704,-0.704,-0.7045,-0.7176,-0.7177,-0.7177,-0.7136,0,0,0,0,0,0,-0.6546,-0.6566,-0.6581,-0.6657,-0.668,-0.6762,-0.6782,-0.6795,-0.6828,-0.6832,-0.6908,-0.692,-0.6962,-0.7022,-0.7036,-0.7048,-0.7049,-0.7175,-0.7176,-0.7177,-0.7137,-0.7135,-0.7134,0,0,0,0,0,-0.6539,-0.6565,-0.6582,-0.6599,-0.67,-0.6762,-0.6776,-0.6823,-0.6829,-0.6845,-0.6891,-0.6918,-0.7037,-0.7027,-0.7044,-0.7057,-0.7175,-0.7176,-0.7177,-0.7138,-0.7136,-0.7134,0,0,0,0,0,0,-0.6491,-0.6576,-0.6595,-0.6647,-0.6696,-0.6772,-0.6794,-0.6819,-0.6869,-0.6871,-0.6929,-0.6945,-0.6995,-0.7031,-0.7019,-0.7099,-0.7108,-0.7112,-0.7073,-0.7072,-0.707,-0.7061,-0.7054,0,0,0,0,0,-0.6485,-0.6528,-0.6601,-0.6639,-0.6663,-0.6724,-0.6753,-0.6785,-0.6839,-0.6861,-0.6911,-0.6963,-0.7013,-0.7044,-0.7093,-0.7142,-0.716,-0.7159,-0.7158,-0.7156,-0.7159,-0.7188,-0.7189,-0.718,-0.718,-0.718,0,0,-0.6477,-0.6528,-0.6552,-0.6631,-0.6673,-0.6717,-0.6741,-0.6786,-0.682,-0.6868,-0.6922,-0.6961,-0.7023,-0.7074,-0.71,-0.7107,-0.7165,-0.7157,-0.7155,-0.716,-0.7189,-0.719,-0.719,-0.7181,-0.7181,-0.718,0,0,-0.6482,-0.6525,-0.6562,-0.6604,-0.6667,-0.6707,-0.6715,-0.6787,-0.6814,-0.6869,-0.6906,-0.6947,-0.703,-0.7073,-0.7106,-0.7126,-0.7152,-0.714,-0.7132,-0.7159,-0.716,-0.7161,-0.7169,-0.7171,-0.7143,-0.7143,-0.7143,0,-0.6463,-0.653,-0.6578,-0.6621,-0.6655,-0.6699,-0.6737,-0.6775,-0.6852,-0.6874,-0.688,-0.6986,-0.7031,-0.7093,-0.7098,-0.7122,-0.7135,-0.7132,-0.7156,-0.7157,-0.7159,-0.7167,-0.7169,-0.7141,-0.7141,-0.7141,-0.7142,0,-0.6503,-0.6549,-0.6571,-0.6642,-0.6678,-0.6718,-0.6773,-0.6804,-0.6832,-0.6872,-0.6927,-0.6982,-0.7044,-0.706,-0.7089,-0.7127,-0.7129,-0.7145,-0.7156,-0.7157,-0.7165,-0.7169,-0.7138,-0.7139,-0.714,-0.714,0,0,-0.6484,-0.658,-0.6588,-0.6621,-0.6693,-0.673,-0.6771,-0.683,-0.6856,-0.6906,-0.6944,-0.7012,-0.7027,-0.7064,-0.7098,-0.7121,-0.7134,-0.7135,-0.7137,-0.7133,-0.7179,-0.7167,-0.717,-0.7152,-0.7152,-0.7153,-0.7174,0,-0.65,-0.6577,-0.6621,-0.6679,-0.6722,-0.6764,-0.6801,-0.6849,-0.6887,-0.6929,-0.697,-0.7018,-0.7034,-0.7056,-0.7082,-0.7127,-0.7144,-0.7126,-0.7188,-0.7189,-0.7171,-0.7175,-0.7163,-0.718,-0.7178,-0.7178,-0.7179,0,-0.653,-0.6579,-0.6641,-0.6708,-0.6727,-0.6759,-0.6817,-0.6856,-0.6912,-0.6937,-0.6977,-0.7011,-0.7057,-0.7063,-0.7128,-0.7115,-0.7142,-0.7168,-0.717,-0.7179,-0.7185,-0.7184,-0.7187,-0.7189,-0.7184,-0.7184,-0.7184,0,-0.651,-0.6591,-0.6639,-0.6666,-0.6745,-0.6766,-0.68,-0.6856,-0.6888,-0.6938,-0.696,-0.7015,-0.7045,-0.7087,-0.7134,-0.7134,-0.7195,-0.7205,-0.7218,-0.7217,-0.723,-0.7228,-0.7238,-0.7246,-0.7246,-0.7246,-0.7245,0,-0.6524,-0.6561,-0.6631,-0.6661,-0.6703,-0.6753,-0.6794,-0.6831,-0.688,-0.6918,-0.6958,-0.6993,-0.7053,-0.7095,-0.7132,-0.7181,-0.7194,-0.7216,-0.7226,-0.7213,-0.721,-0.7233,-0.7233,-0.7246,-0.7246,-0.7246,-0.7246,0,-0.651,-0.6558,-0.6613,-0.6683,-0.6701,-0.6729,-0.6789,-0.682,-0.6858,-0.6906,-0.692,-0.6981,-0.7033,-0.7084,-0.7154,-0.7179,-0.7227,-0.7239,-0.7208,-0.7213,-0.7224,-0.7222,-0.7249,-0.7255,-0.7257,-0.7257,-0.7257,0,-0.6516,-0.6545,-0.6617,-0.6645,-0.6678,-0.6722,-0.6755,-0.6805,-0.6838,-0.6903,-0.6925,-0.698,-0.7026,-0.7107,-0.7158,-0.7212,-0.7227,-0.7232,-0.7235,-0.7221,-0.7227,-0.7225,-0.7229,-0.7231,-0.723,-0.723,-0.723,0,-0.6523,-0.6545,-0.659,-0.6643,-0.668,-0.6725,-0.6771,-0.6792,-0.6851,-0.6886,-0.6938,-0.6974,-0.7045,-0.7099,-0.7158,-0.7194,-0.7222,-0.7228,-0.7234,-0.7222,-0.7203,-0.7214,-0.7205,-0.7228,-0.7228,-0.7228,-0.7228,-0.7229,-0.652,-0.6547,-0.6602,-0.6651,-0.669,-0.6732,-0.6764,-0.6806,-0.685,-0.6911,-0.6938,-0.6991,-0.7046,-0.7128,-0.7164,-0.7207,-0.7214,-0.7222,-0.7225,-0.7226,-0.7224,-0.7195,-0.7217,-0.7218,-0.7218,-0.7218,-0.7218,0,-0.6529,-0.6566,-0.661,-0.6672,-0.671,-0.6732,-0.6784,-0.6815,-0.686,-0.6909,-0.6953,-0.7013,-0.7065,-0.712,-0.7175,-0.7199,-0.7213,-0.7212,-0.7211,-0.7219,-0.7214,-0.7203,-0.7199,-0.7199,-0.7199,-0.7199,-0.7199,-0.7199,-0.6538,-0.6586,-0.6614,-0.6681,-0.6718,-0.677,-0.6798,-0.6837,-0.6875,-0.694,-0.6983,-0.7018,-0.7069,-0.7128,-0.7177,-0.7191,-0.721,-0.7205,-0.7224,-0.7218,-0.7219,-0.7221,-0.7211,-0.7209,-0.7209,-0.7226,-0.7226,-0.7226]}]]